{"data":{"norad_id":64801,"epoch":"2026-05-25T04:15:19.337760Z","epoch_age_seconds":66484,"freshness":"FRESH","line1":"1 64801U 25150M   26145.17730715  .00002463  00000+0  21410-3 0  9996","line2":"2 64801  70.0001 301.6116 0002721 269.0902  90.9945 14.98333962 47978","mean_motion":14.98333962,"eccentricity":0.0002721,"inclination_deg":70.0001,"raan_deg":301.6116,"arg_perigee_deg":269.0902,"mean_anomaly_deg":90.9945,"bstar":0.0002141,"rev_number":4797,"period_min":96.10674499281,"perigee_km":570.15249466142,"apogee_km":573.93478296506,"semimajor_km":6950.1806388132,"source":"CELESTRAK","updated_at":"2026-05-25T13:38:20.565704Z"}}